FW1048 Weather Reports


time (UTC)temp
C
wind
direction
speed
KPH
gust
KPH
rain 1hr
cm
rain 24hr
cm
rain mn
cm
humidity
%
barometer
mb
20260504214807 12 331 0.0 1.6 0.00 0.00 0.00 79 1016.1
20260504214307 13 331 1.6 3.2 0.00 0.00 0.00 79 1016.0
20260504213806 13 331 1.6 4.8 0.00 0.00 0.00 79 1016.0
20260504213307 13 330 1.6 4.8 0.00 0.00 0.00 78 1016.0
20260504211806 13 330 0.0 3.2 0.00 0.00 0.00 77 1016.2
20260504211306 13 330 1.6 3.2 0.00 0.00 0.00 77 1016.2
20260504210806 13 330 0.0 3.2 0.00 0.00 0.00 76 1016.2
20260504210307 13 331 0.0 3.2 0.00 0.00 0.00 77 1016.1
20260504205806 13 331 1.6 3.2 0.00 0.00 0.00 75 1016.1
20260504205306 13 331 1.6 3.2 0.00 0.00 0.00 75 1016.1
20260504204806 13 331 0.0 3.2 0.00 0.00 0.00 75 1016.1
20260504204306 13 330 1.6 4.8 0.00 0.00 0.00 74 1016.1
20260504203306 14 331 1.6 4.8 0.00 0.00 0.00 74 1016.1
20260504202807 14 330 1.6 4.8 0.00 0.00 0.00 72 1016.0
20260504202306 14 331 1.6 4.8 0.00 0.00 0.00 72 1016.0
20260504201806 15 330 0.0 4.8 0.00 0.00 0.00 72 1016.0
20260504200806 15 308 0.0 4.8 0.00 0.00 0.00 71 1016.0
20260504195306 15 307 3.2 4.8 0.00 0.00 0.00 70 1016.1
20260504194806 15 308 1.6 4.8 0.00 0.00 0.00 70 1016.0
20260504194307 15 309 3.2 4.8 0.00 0.00 0.00 70 1015.9
20260504193807 15 296 1.6 4.8 0.00 0.00 0.00 70 1015.9
20260504192806 15 294 3.2 8.0 0.00 0.00 0.00 70 1015.8
20260504192306 15 290 1.6 4.8 0.00 0.00 0.00 70 1015.8
20260504191306 15 289 3.2 8.0 0.00 0.00 0.00 71 1015.7
20260504190806 15 318 3.2 4.8 0.00 0.00 0.00 69 1015.7
20260504190306 16 318 1.6 4.8 0.00 0.00 0.00 69 1015.6
20260504185806 16 319 1.6 4.8 0.00 0.00 0.00 68 1015.6
20260504185306 16 317 3.2 4.8 0.00 0.00 0.00 68 1015.4
20260504184806 16 317 1.6 4.8 0.00 0.00 0.00 69 1015.4
20260504184307 16 317 3.2 4.8 0.00 0.00 0.00 66 1015.3
20260504183807 16 318 3.2 4.8 0.00 0.00 0.00 67 1015.2
20260504183306 17 317 1.6 4.8 0.00 0.00 0.00 65 1015.2
20260504182806 17 317 1.6 4.8 0.00 0.00 0.00 65 1015.1
20260504182306 17 318 3.2 4.8 0.00 0.00 0.00 64 1015.1
20260504181807 17 317 1.6 3.2 0.00 0.00 0.00 62 1015.1
20260504180806 18 319 3.2 8.0 0.00 0.00 0.00 60 1015.0
20260504180306 18 318 3.2 8.0 0.00 0.00 0.00 59 1015.0
20260504175806 19 312 3.2 12.9 0.00 0.00 0.00 57 1014.9
20260504175307 19 148 3.2 12.9 0.00 0.00 0.00 55 1014.8
20260504174806 20 209 1.6 4.8 0.00 0.00 0.00 54 1014.7
20260504174306 20 229 1.6 11.3 0.00 0.00 0.00 54 1014.7
20260504173807 20 126 4.8 11.3 0.00 0.00 0.00 54 1014.7
20260504173306 20 175 1.6 8.0 0.00 0.00 0.00 53 1014.7
20260504172806 20 171 4.8 9.7 0.00 0.00 0.00 52 1014.7
20260504172306 20 113 3.2 9.7 0.00 0.00 0.00 51 1014.7
20260504171806 20 154 4.8 9.7 0.00 0.00 0.00 51 1014.7
20260504171305 20 166 3.2 11.3 0.00 0.00 0.00 51 1014.6
20260504170306 20 123 8.0 11.3 0.00 0.00 0.00 50 1014.6
20260504160305 22 127 4.8 12.9 0.00 0.00 0.00 48 1014.7
20260504150805 22 102 8.0 16.1 0.00 0.00 0.00 46 1015.0
20260504141306 24 117 11.3 20.9 0.00 0.00 0.00 44 1015.0
20260504140805 24 112 11.3 22.5 0.00 0.00 0.00 44 1014.9
20260504140305 24 113 11.3 22.5 0.00 0.00 0.00 42 1015.0
20260504130806 24 106 4.8 4.8 0.00 0.00 0.00 44 1015.6
20260504120306 25 151 8.0 16.1 0.00 0.00 0.00 42 1015.6
20260504110305 25 114 6.4 16.1 0.00 0.00 0.00 41 1015.9
20260504081305 17 124 3.2 4.8 0.00 0.00 0.00 71 1017.4
20260504080804 17 125 1.6 4.8 0.00 0.00 0.00 70 1017.3
20260504080306 16 124 3.2 4.8 0.00 0.00 0.00 70 1017.4
20260504070304 13 117 1.6 4.8 0.00 0.00 0.00 77 1017.7
20260504050304 7 135 0.0 0.0 0.00 0.00 0.00 95 1017.6
20260504045804 6 135 0.0 0.0 0.00 0.00 0.00 94 1017.6
20260504045304 6 135 0.0 0.0 0.00 0.00 0.00 94 1017.6
20260504044805 6 135 0.0 0.0 0.00 0.00 0.00 94 1017.5
20260504044305 6 135 0.0 0.0 0.00 0.00 0.00 94 1017.5
20260504043804 6 135 0.0 0.0 0.00 0.00 0.00 94 1017.5
20260504042805 6 135 0.0 0.0 0.00 0.00 0.00 94 1017.4
20260504042304 6 135 0.0 1.6 0.00 0.00 0.00 94 1017.3
20260504041804 6 135 1.6 1.6 0.00 0.00 0.00 93 1017.3
20260504041306 7 135 0.0 0.0 0.00 0.00 0.00 94 1017.3
20260504040805 7 316 0.0 0.0 0.00 0.00 0.00 94 1017.3
20260504040304 7 316 0.0 0.0 0.00 0.00 0.00 94 1017.3
20260504035806 7 316 0.0 0.0 0.00 0.00 0.00 94 1017.3
20260504034805 7 316 0.0 0.0 0.00 0.00 0.00 93 1017.3
20260504034304 7 316 0.0 0.0 0.00 0.00 0.00 93 1017.3
20260504033805 7 316 0.0 0.0 0.00 0.00 0.00 93 1017.3
20260504032805 7 316 0.0 1.6 0.00 0.00 0.00 93 1017.3
20260504032304 7 316 0.0 0.0 0.00 0.00 0.00 93 1017.2
20260504031804 7 316 0.0 0.0 0.00 0.00 0.00 93 1017.2
20260504031304 7 316 0.0 0.0 0.00 0.00 0.00 93 1017.2
20260504030304 7 316 0.0 0.0 0.00 0.00 0.00 93 1017.2
20260504025804 7 316 0.0 0.0 0.00 0.00 0.00 93 1017.3
20260504025305 7 316 0.0 1.6 0.00 0.00 0.00 93 1017.4
20260504024304 7 316 1.6 1.6 0.00 0.00 0.00 92 1017.4
20260504023804 7 315 0.0 0.0 0.00 0.00 0.00 93 1017.5
20260504023304 7 315 0.0 0.0 0.00 0.00 0.00 93 1017.5
20260504022804 7 315 0.0 0.0 0.00 0.00 0.00 93 1017.5
20260504021804 7 315 0.0 0.0 0.00 0.00 0.00 92 1017.4
20260504021304 7 315 0.0 0.0 0.00 0.00 0.00 92 1017.4
20260504020804 7 315 0.0 1.6 0.00 0.00 0.00 92 1017.4
20260504015304 8 315 0.0 3.2 0.00 0.00 0.00 92 1017.5
20260504014804 8 315 1.6 3.2 0.00 0.00 0.00 92 1017.5
20260504014304 8 315 0.0 1.6 0.00 0.00 0.00 92 1017.4
20260504013804 8 315 0.0 1.6 0.00 0.00 0.00 92 1017.4
20260504013304 8 315 0.0 1.6 0.00 0.00 0.00 92 1017.4
20260504012304 8 315 1.6 3.2 0.00 0.00 0.00 91 1017.4
20260504011804 8 315 0.0 3.2 0.00 0.00 0.00 92 1017.4
20260504011305 8 315 0.0 1.6 0.00 0.00 0.00 91 1017.4
20260504010804 8 315 0.0 1.6 0.00 0.00 0.00 91 1017.4
20260504010304 8 315 0.0 1.6 0.00 0.00 0.00 91 1017.4
20260504005305 8 314 0.0 3.2 0.00 0.00 0.00 92 1017.3
20260504004803 8 315 1.6 3.2 0.00 0.00 0.00 92 1017.4
20260504004305 8 314 0.0 3.2 0.00 0.00 0.00 91 1017.4
20260504003803 8 314 1.6 3.2 0.00 0.00 0.00 92 1017.4
20260504003304 8 314 0.0 3.2 0.00 0.00 0.00 91 1017.4
20260504002804 8 314 1.6 3.2 0.00 0.00 0.00 92 1017.4
20260504002304 8 314 1.6 3.2 0.00 0.00 0.00 92 1017.4
20260504001303 8 314 0.0 0.0 0.00 0.00 0.00 92 1017.4
20260504000304 8 314 0.0 0.0 0.00 0.00 0.00 91 1017.4
20260503235804 8 314 0.0 0.0 0.00 0.00 0.00 91 1017.4
20260503235304 8 313 0.0 0.0 0.00 0.00 0.00 91 1017.5
20260503234804 8 314 0.0 0.0 0.00 0.00 0.00 91 1017.5
20260503234304 8 314 0.0 0.0 0.00 0.00 0.00 91 1017.5
20260503233803 8 313 0.0 0.0 0.00 0.00 0.00 90 1017.4
20260503233304 9 313 0.0 1.6 0.00 0.00 0.00 90 1017.4
20260503231804 9 313 0.0 1.6 0.00 0.00 0.00 90 1017.4
20260503231304 9 313 0.0 1.6 0.00 0.00 0.00 90 1017.4
20260503230304 9 312 0.0 1.6 0.00 0.00 0.00 89 1017.4
20260503225323 9 312 0.0 0.0 0.00 0.00 0.00 89 1017.4
20260503224823 9 311 0.0 3.2 0.00 0.00 0.00 89 1017.4
20260503224323 9 311 0.0 3.2 0.00 0.00 0.00 89 1017.4
20260503223823 10 311 1.6 3.2 0.00 0.00 0.00 88 1017.3
20260503222824 10 312 0.0 0.0 0.00 0.00 0.00 89 1017.3
20260503222323 10 312 0.0 3.2 0.00 0.00 0.00 88 1017.3
20260503221824 10 312 0.0 3.2 0.00 0.00 0.00 88 1017.3
20260503221323 10 311 0.0 0.0 0.00 0.00 0.00 88 1017.3
20260503220831 10 311 0.0 3.2 0.00 0.00 0.00 87 1017.2
20260503220324 10 313 0.0 3.2 0.00 0.00 0.00 87 1017.2
20260503215823 10 313 0.0 1.6 0.00 0.00 0.00 86 1017.2